Flag for Germany Weather past 2 weeks in Cologne, North Rhine-Westphalia, Germany

Now
57 °F

Sprinkles. Broken clouds.


Feels Like: 56 °F
Forecast: 48 / 69 °F
Wind: 7 mph from West

Location: Koeln / Bonn

Current Time: Jul 30, 2015 at 8:43:40 PM

Latest Report: Jul 30, 2015 at 8:20 PM


Visibility: N/A

Pressure: 30.07 "Hg

Humidity: 82%

Dew point: 52 °F

Location of CologneLocation

Historic Weather in Cologne — Graph

°F

Cologne temperature yesterday

Maximum temperature yesterday: 66 °F (at 12:20 PM)
Minimum temperature yesterday: 50 °F (at 5:50 AM)
Average temperature yesterday: 58 °F

Past Weeks' High & Low Weather Summary

 TemperatureHumidityPressure
High95 °F (Jul 17, 3:20 PM)94% (Jul 16, 6:50 AM)30.09 "Hg (Jul 16, 6:50 AM)
Low48 °F (Jul 26, 3:50 AM)15% (Jul 17, 4:20 PM)29.56 "Hg (Jul 25, 6:50 AM)
Average66 °F69%29.89 "Hg
* Reported Jul 15 7:20 PM — Jul 30 7:20 PM, Cologne, Weather by CustomWeather, © 2015

Note: Actual official high and low records may vary slightly from our data, if they occured in-between our weather recording intervals... More about our weather records

Advertising

Cologne weather history for previous 24 hours

 ConditionsComfort  
Time TempWeatherWind HumidityBarometerVisibility
7:20 PM
Thu, Jul 30
57 °FBroken clouds.2 mph82%30.04 "HgN/A
6:50 PM57 °FPartly sunny.3 mph82%30.04 "HgN/A
6:20 PM55 °FPartly sunny.3 mph82%30.04 "HgN/A
5:50 PM55 °FSprinkles. Partly sunny.7 mph82%30.04 "HgN/A
5:20 PM59 °FSprinkles. Partly sunny.9 mph72%30.04 "HgN/A
4:50 PM61 °FPartly sunny.8 mph68%30.01 "HgN/A
4:20 PM61 °FPartly sunny.7 mph72%30.01 "HgN/A
3:50 PM59 °FPartly sunny.8 mph82%30.01 "HgN/A
3:20 PM57 °FThunderstorms. Partly sunny.6 mph82%30.01 "HgN/A
2:50 PM63 °FThunderstorms. Partly sunny.6 mph56%30.01 "HgN/A
2:20 PM66 °FScattered clouds.6 mph49%29.98 "HgN/A
1:50 PM63 °FMild.7 mph64%30.01 "HgN/A
1:20 PM63 °FScattered showers. Broken clouds.10 mph56%29.98 "HgN/A
12:50 PM63 °FScattered showers. Broken clouds.9 mph59%30.01 "HgN/A
12:20 PM61 °FBroken clouds.8 mph63%30.01 "HgN/A
11:50 AM61 °FBroken clouds.8 mph63%30.01 "HgN/A
11:20 AM59 °FPartly sunny.7 mph68%29.98 "HgN/A
10:20 AM57 °FPartly sunny.5 mph77%29.98 "HgN/A
9:50 AM55 °FLight rain. Broken clouds.3 mph77%29.98 "HgN/A
9:20 AM54 °FPartly sunny.3 mph82%29.98 "HgN/A
8:50 AM54 °FPartly sunny.5 mph82%29.98 "HgN/A
8:20 AM54 °FBroken clouds.5 mph77%29.98 "HgN/A
7:50 AM52 °FPartly sunny.3 mph82%29.98 "HgN/A
7:20 AM52 °FBroken clouds.5 mph82%29.98 "HgN/A
6:50 AM50 °FPassing clouds.5 mph88%29.95 "HgN/A
6:20 AM50 °FPassing clouds.5 mph82%29.95 "HgN/A
5:50 AM48 °FPassing clouds.5 mph87%29.95 "HgN/A
5:20 AM48 °FClear.5 mph87%29.95 "Hg10 mi
4:50 AM48 °FClear.3 mph87%29.95 "Hg10 mi
4:20 AM50 °FClear.2 mph82%29.95 "Hg10 mi
3:50 AM50 °FClear.3 mph82%29.95 "Hg10 mi
3:20 AM50 °FClear.2 mph82%29.95 "Hg10 mi
2:50 AM50 °FClear.5 mph82%29.95 "Hg10 mi
2:20 AM52 °FClear.5 mph77%29.95 "Hg10 mi
1:50 AM52 °FClear.5 mph82%29.95 "Hg10 mi
1:20 AM52 °FClear.3 mph82%29.95 "Hg10 mi
12:50 AM52 °FPartly cloudy.5 mph82%29.95 "HgN/A
12:20 AM52 °FClear.6 mph77%29.92 "Hg10 mi
11:50 PM
Wed, Jul 29
55 °FClear.5 mph72%29.92 "Hg10 mi
11:20 PM55 °FClear.3 mph67%29.92 "Hg10 mi
10:50 PM57 °FClear.7 mph63%29.92 "Hg10 mi
10:20 PM59 °FSunny.7 mph63%29.92 "Hg10 mi
9:50 PM59 °FSunny.12 mph59%29.92 "Hg10 mi
9:20 PM61 °FSunny.14 mph55%29.89 "Hg10 mi
8:50 PM63 °FSunny.15 mph45%29.89 "Hg10 mi
8:20 PM64 °FSunny.17 mph40%29.86 "Hg10 mi
Weather by CustomWeather, © 2015

See weather overviewHow to use our weather pages